Simultaneous Nadir Overpasses (SNOs) Predictions

Prediction of SNOs between FY3D and LANDSAT-8 Satellite Orbit:

Table of predicted SNOs for the next 14.0 days since TLE Epoch: 5/7/2023
Index Date (FY3D) Time (FY3D) Lat,Lon (FY3D) SZA (FY3D ) Date (LANDSAT-8) Time (LANDSAT-8) Lat,Lon (LANDSAT-8) SZA (LANDSAT-8 ) Distance(km) Time Diff (sec)
1 05/08/2023 10:57:24 73.00, 16.25 55.83 05/08/2023 10:57:54 72.99, 16.30 55.82 2.22 30
2 05/08/2023 11:48:07 -72.91,-176.23 124.27 05/08/2023 11:47:23 -72.92,-176.20 124.27 1.26 44
3 05/11/2023 02:24:30 -72.98, -35.44 124.89 05/11/2023 02:24:54 -73.01, -35.42 124.87 2.75 24
4 05/11/2023 03:15:15 72.91, 132.02 55.03 05/11/2023 03:14:21 72.91, 132.04 55.03 0.81 54
5 05/13/2023 17:01:07 -73.75, 103.73 124.78 05/13/2023 17:02:13 -73.69, 106.60 124.82 89.65 66
6
